[[{"header":{"parameterUnit":"m.s-1","parameterCategory":1,"la1":30.2991,"la2":30.254,"lo1":-89.0895,"lo2":-89.0444,"dy":0.0017,"dx":0.0017,"nx":28,"ny":28,"refTime":"2025-01-26T09:00:00:Z","depth":0,"parameterNumber":2,"parameterNumberName":"U-component_of_WINDS"},"data":[0,0,0,0,0,0,0,0,0,0,0,0,0,0,0,0,0,0,0,0,0,0,0,0,0,0,0,0,0,0,0,0,0,0,0,0,0,0,0,0,0,0,0,0,0,0,0,0,0,0,0,0,0,0,0,0,0,0,-3.6422,-3.6423,0,-3.651,-3.6511,-3.6512,-3.6458,-3.6455,-3.6452,-3.645,-3.654,-3.6544,-3.6549,0,0,0,0,0,0,0,0,0,0,0,0,0,-3.6205,-3.6209,-3.6422,-3.6423,-3.6424,-3.651,-3.6511,-3.6513,-3.6458,-3.6455,-3.6452,-3.6449,-3.6538,-3.6544,-3.655,0,0,0,0,0,0,0,0,0,0,0,0,0,-3.6297,-3.621,-3.6422,-3.6407,-3.6407,-3.651,-3.6511,-3.6513,-3.6459,-3.6455,-3.6451,-3.6447,-3.6536,-3.6543,-3.655,-3.6672,0,0,-3.6572,-3.6576,0,0,0,0,0,0,0,0,-3.6291,-3.6305,-3.6408,-3.6408,-3.6408,-3.6469,-3.6468,-3.6566,-3.646,-3.6439,-3.645,-3.6445,-3.6519,-3.6528,-3.6553,-3.6677,-3.668,-3.6573,-3.6577,-3.658,-3.6583,0,0,0,0,0,0,0,-3.6285,-3.63,-3.6457,-3.641,-3.641,-3.6396,-3.6405,-3.6486,-3.65,-3.644,-3.6437,-3.6448,-3.6518,-3.6546,-3.6554,-3.6682,-3.6573,-3.6579,-3.6584,-3.6586,-3.6908,-3.6912,0,0,0,0,0,0,-3.628,-3.6296,-3.6454,-3.6459,-3.6339,-3.6403,-3.6413,-3.6453,-3.6499,-3.6502,-3.6451,-3.6445,-3.6536,-3.6546,-3.6557,-3.67,-3.658,-3.6587,-3.6591,-3.6904,-3.6909,-3.6913,0,0,0,0,0,0,-3.6276,-3.6295,-3.645,-3.6377,-3.6395,-3.6411,-3.6457,-3.6457,-3.6484,-3.6507,-3.6509,-3.6477,-3.6533,-3.6547,-3.6644,-3.6703,-3.659,-3.6597,-3.6899,-3.6905,-3.6911,-3.6989,0,0,0,0,0,0,-3.627,-3.6293,-3.634,-3.6378,-3.6399,-3.6536,-3.6461,-3.6462,-3.6497,-3.649,-3.6531,-3.6534,-3.6531,-3.6633,-3.6651,-3.6711,-3.6603,-3.6893,-3.6902,-3.6909,-3.6981,-3.6997,-3.7011,0,0,0,0,0,-3.6262,-3.6359,-3.6343,-3.6362,-3.6458,-3.6539,-3.6551,-3.6545,-3.6502,-3.6548,-3.6563,-3.6533,-3.6695,-3.6644,-3.6663,-3.6726,-3.689,-3.6899,-3.6909,-3.6974,-3.6994,-3.7011,0,0,0,0,0,0,-3.6327,-3.6363,-3.6346,-3.6458,-3.6496,-3.653,-3.6588,-3.6567,-3.6618,-3.6609,-3.66,-3.6609,-3.6709,-3.6728,-3.6671,-3.6845,-3.6785,-3.6799,-3.6829,-3.6848,-3.6862,-3.6854,-3.6609,0,0,0,0,0,-3.6354,-3.6417,-3.6446,-3.6542,-3.6562,-3.6572,-3.6607,-3.66,-3.6638,-3.6654,-3.6676,-3.6714,-3.6773,-3.6812,-3.6868,-3.6985,-3.6992,-3.7038,-3.7053,-3.7065,-3.7076,-3.7137,-3.7157,-3.6945,-3.6945,-3.6944,0,0,-3.6411,-3.6439,-3.6479,-3.6556,-3.6584,-3.6648,-3.6586,-3.6657,-3.6704,-3.6665,-3.6756,-3.6774,-3.6816,-3.6923,-3.6971,-3.6941,-3.7137,-3.7078,-3.7087,-3.7091,-3.7149,-3.7169,-3.7186,-3.6951,-3.695,-3.6949,0,0,-3.6546,-3.6575,-3.6657,-3.6687,-3.6731,-3.6737,-3.6757,-3.6795,-3.6805,-3.6897,-3.6868,-3.6925,-3.7028,-3.7058,-3.7087,-3.7236,-3.7209,-3.7255,-3.7331,-3.7391,-3.7407,-3.7422,-3.7471,-3.749,-3.7267,-3.7267,-3.7267,0,-3.661,-3.6707,-3.6701,-3.6775,-3.6808,-3.6777,-3.6858,-3.6888,-3.6949,-3.6972,-3.6939,-3.7066,-3.7093,-3.7205,-3.7241,-3.7268,-3.7288,-3.7248,-3.7405,-3.742,-3.7434,-3.7481,-3.75,-3.7272,-3.7271,-3.7271,-3.727,0,-3.6782,-3.685,-3.6911,-3.6969,-3.701,-3.7088,-3.7093,-3.7136,-3.7126,-3.7136,-3.7229,-3.7261,-3.7321,-3.7348,-3.7339,-3.7459,-3.7439,-3.7407,-3.7345,-3.7459,-3.7502,-3.7521,-3.7279,-3.7277,-3.7276,-3.7274,0,0,-3.6957,-3.7013,-3.7034,-3.706,-3.7107,-3.7159,-3.7235,-3.7295,-3.733,-3.7374,-3.7435,-3.7524,-3.7494,-3.7527,-3.7522,-3.7575,-3.7686,-3.7535,-3.7536,-3.7558,-3.7817,-3.7837,-3.7859,-3.7671,-3.7675,-3.7677,-3.7812,0,-3.7092,-3.7224,-3.7222,-3.7344,-3.7404,-3.7377,-3.7443,-3.7479,-3.7491,-3.7544,-3.7557,-3.7618,-3.7576,-3.7595,-3.7647,-3.7662,-3.7737,-3.7653,-3.7726,-3.7728,-3.7711,-3.7882,-3.7905,-3.803,-3.7829,-3.7832,-3.7834,0,-3.7266,-3.7314,-3.7442,-3.7479,-3.7505,-3.7564,-3.7618,-3.7671,-3.7711,-3.7716,-3.7753,-3.774,-3.7816,-3.7757,-3.7861,-3.7803,-3.7834,-3.7846,-3.7851,-3.7853,-3.7785,-3.7885,-3.807,-3.8087,-3.7862,-3.786,-3.7858,0,-3.7375,-3.7473,-3.7562,-3.7585,-3.7632,-3.7674,-3.7695,-3.7732,-3.7768,-3.7816,-3.7838,-3.7895,-3.7925,-3.7969,-3.7971,-3.7928,-3.8075,-3.8016,-3.8079,-3.8078,-3.8107,-3.8104,-3.8294,-3.8135,-3.8134,-3.8134,-3.8134,0,-3.7523,-3.7601,-3.7611,-3.7665,-3.7752,-3.775,-3.7836,-3.7854,-3.7887,-3.7943,-3.7924,-3.7977,-3.7979,-3.8034,-3.8036,-3.812,-3.8135,-3.814,-3.8138,-3.8138,-3.8137,-3.8155,-3.8144,-3.8139,-3.8138,-3.8137,-3.8136,0,-3.7657,-3.7667,-3.7761,-3.7799,-3.781,-3.7872,-3.7903,-3.7955,-3.7966,-3.8038,-3.8054,-3.8072,-3.8135,-3.8143,-3.8217,-3.8218,-3.8318,-3.831,-3.8304,-3.8301,-3.8362,-3.8354,-3.8566,-3.8592,-3.842,-3.8422,-3.8423,0,-3.7748,-3.7807,-3.7851,-3.7888,-3.7911,-3.7971,-3.8007,-3.8009,-3.8047,-3.8098,-3.8143,-3.8204,-3.8253,-3.8355,-3.8374,-3.843,-3.842,-3.8491,-3.8428,-3.8426,-3.8416,-3.8411,-3.8415,-3.8501,-3.8503,-3.8505,-3.8506,0,-3.7907,-3.791,-3.7963,-3.8018,-3.8062,-3.8106,-3.8147,-3.8178,-3.8184,-3.8229,-3.8293,-3.8331,-3.8407,-3.8467,-3.8523,-3.8544,-3.8526,-3.8526,-3.8543,-3.8541,-3.8533,-3.8534,-3.8332,-3.852,-3.8519,-3.8518,-3.8517,-3.8516,-3.802,-3.807,-3.8109,-3.8168,-3.82,-3.8239,-3.8288,-3.8306,-3.8359,-3.842,-3.8419,-3.8489,-3.8528,-3.8601,-3.8627,-3.8681,-3.8658,-3.8683,-3.8689,-3.8694,-3.8698,-3.8529,-3.8692,-3.8692,-3.8692,-3.8691,-3.8691,0,-3.8174,-3.8198,-3.8253,-3.8311,-3.8358,-3.8339,-3.8383,-3.8423,-3.8485,-3.8523,-3.8572,-3.8645,-3.8704,-3.8729,-3.8786,-3.8825,-3.8818,-3.884,-3.8834,-3.8839,-3.8718,-3.8695,-3.8844,-3.8844,-3.8844,-3.8844,-3.8844,-3.8844,-3.8259,-3.8343,-3.835,-3.8449,-3.8473,-3.8541,-3.8568,-3.8603,-3.8634,-3.8716,-3.8765,-3.8781,-3.8814,-3.8874,-3.8926,-3.8932,-3.8952,-3.8977,-3.8979,-3.8864,-3.8848,-3.8833,-3.8811,-3.8983,-3.8983,-3.9095,-3.9096,-3.9097]},{"header":{"parameterUnit":"m.s-1","parameterCategory":1,"la1":30.2991,"la2":30.254,"lo1":-89.0895,"lo2":-89.0444,"dy":0.0017,"dx":0.0017,"nx":28,"ny":28,"refTime":"2025-01-26T09:00:00:Z","depth":0,"parameterNumber":3,"parameterNumberName":"V-component_of_WINDS"},"data":[0,0,0,0,0,0,0,0,0,0,0,0,0,0,0,0,0,0,0,0,0,0,0,0,0,0,0,0,0,0,0,0,0,0,0,0,0,0,0,0,0,0,0,0,0,0,0,0,0,0,0,0,0,0,0,0,0,0,1.2882,1.2883,0,1.3002,1.3004,1.3005,1.3011,1.301,1.3008,1.3007,1.3126,1.3131,1.3135,0,0,0,0,0,0,0,0,0,0,0,0,0,1.2655,1.2659,1.2882,1.2883,1.2885,1.3002,1.3004,1.3006,1.3011,1.301,1.3008,1.3006,1.3125,1.313,1.3136,0,0,0,0,0,0,0,0,0,0,0,0,0,1.2762,1.266,1.2881,1.2902,1.2905,1.3002,1.3004,1.3006,1.3012,1.301,1.3007,1.3006,1.3123,1.313,1.3136,1.322,0,0,1.3157,1.316,0,0,0,0,0,0,0,0,1.2756,1.277,1.2897,1.2901,1.2904,1.299,1.2968,1.3078,1.3012,1.2971,1.3007,1.3004,1.3082,1.3092,1.3119,1.3226,1.3231,1.3158,1.3162,1.3165,1.3166,0,0,0,0,0,0,0,1.2748,1.2765,1.2929,1.2899,1.2903,1.2904,1.2917,1.2988,1.3037,1.2974,1.2975,1.299,1.3084,1.3113,1.3122,1.3232,1.3157,1.3163,1.3168,1.317,1.3416,1.3418,0,0,0,0,0,0,1.2737,1.2759,1.2926,1.2933,1.2823,1.291,1.2925,1.2964,1.3036,1.3045,1.2991,1.2989,1.3102,1.3114,1.3126,1.3231,1.3164,1.3171,1.3175,1.3413,1.3416,1.3419,0,0,0,0,0,0,1.2732,1.2752,1.2921,1.2846,1.2868,1.2916,1.2961,1.2968,1.2997,1.3049,1.3057,1.3012,1.3101,1.3117,1.3198,1.3235,1.3174,1.318,1.341,1.3414,1.3417,1.3439,0,0,0,0,0,0,1.2726,1.275,1.2783,1.2847,1.2872,1.299,1.2963,1.2972,1.3009,1.3008,1.3071,1.3079,1.3101,1.3188,1.3204,1.3243,1.3185,1.3407,1.3412,1.3416,1.3435,1.3443,1.345,0,0,0,0,0,1.2718,1.2783,1.2784,1.2805,1.2914,1.2993,1.3007,1.3031,1.3012,1.3045,1.3079,1.3077,1.3228,1.3196,1.3215,1.3256,1.3405,1.3411,1.3416,1.3432,1.3442,1.345,0,0,0,0,0,0,1.272,1.2791,1.2794,1.2882,1.2932,1.2993,1.3036,1.304,1.3095,1.3091,1.3118,1.3133,1.3213,1.3242,1.3205,1.3342,1.3314,1.3324,1.332,1.333,1.3337,1.3328,1.3191,0,0,0,0,0,1.2731,1.279,1.2849,1.2921,1.2946,1.2987,1.3022,1.3037,1.3088,1.3109,1.3148,1.3198,1.3257,1.3294,1.3351,1.344,1.3454,1.3478,1.3485,1.3491,1.3499,1.355,1.3561,1.3437,1.3437,1.3437,0,0,1.2753,1.28,1.2835,1.2922,1.2962,1.3023,1.3004,1.3068,1.3113,1.3118,1.3198,1.3228,1.3285,1.3371,1.341,1.3398,1.3537,1.3498,1.3502,1.3507,1.3557,1.3569,1.3579,1.3441,1.344,1.344,0,0,1.2826,1.2867,1.2932,1.2974,1.3035,1.3063,1.3078,1.3141,1.3162,1.3242,1.3248,1.3302,1.3402,1.3443,1.3477,1.3568,1.3569,1.3585,1.3624,1.3673,1.3683,1.3692,1.3726,1.3737,1.3593,1.3593,1.3593,0,1.2846,1.2938,1.2965,1.303,1.3069,1.3079,1.3145,1.3184,1.326,1.3286,1.3271,1.3399,1.3438,1.3534,1.3557,1.3583,1.3603,1.3578,1.3679,1.3689,1.3697,1.373,1.3743,1.3595,1.3595,1.3595,1.3594,0,1.2961,1.3025,1.307,1.3147,1.319,1.3255,1.3292,1.3333,1.3345,1.3373,1.3456,1.3503,1.3571,1.3595,1.3605,1.3693,1.3684,1.3674,1.3647,1.371,1.3742,1.3754,1.3597,1.3597,1.3596,1.3596,0,0,1.3037,1.3129,1.3146,1.3182,1.3251,1.3301,1.3367,1.3435,1.3471,1.3523,1.358,1.3666,1.3658,1.3697,1.3712,1.3756,1.3827,1.3741,1.3742,1.3756,1.3929,1.3937,1.3951,1.3828,1.3831,1.3833,1.3924,0,1.3119,1.3239,1.3266,1.3368,1.3429,1.344,1.3498,1.3547,1.3576,1.3631,1.3662,1.3723,1.3707,1.3731,1.3774,1.3809,1.3862,1.3803,1.3881,1.3884,1.3868,1.3967,1.3975,1.406,1.3937,1.3939,1.394,0,1.323,1.3288,1.3397,1.3462,1.3488,1.354,1.3606,1.3658,1.3714,1.3732,1.3777,1.3789,1.3858,1.3827,1.3924,1.3883,1.3917,1.3939,1.3943,1.3952,1.3917,1.398,1.4087,1.41,1.3959,1.3958,1.3957,0,1.3277,1.3382,1.3462,1.3492,1.3568,1.3605,1.3638,1.3692,1.3732,1.3789,1.3816,1.3879,1.3914,1.3963,1.3992,1.3967,1.4087,1.4058,1.4105,1.4104,1.413,1.4128,1.4245,1.415,1.4149,1.4149,1.4149,0,1.3365,1.3432,1.3484,1.3533,1.3609,1.3639,1.3713,1.3746,1.3795,1.3851,1.3863,1.3915,1.395,1.4007,1.4029,1.4107,1.4122,1.4139,1.4144,1.4139,1.4137,1.4162,1.4157,1.4152,1.4152,1.4151,1.415,0,1.3431,1.3468,1.3556,1.3622,1.3641,1.3694,1.375,1.3799,1.3828,1.3899,1.3917,1.3964,1.4032,1.4066,1.4149,1.4164,1.4253,1.4254,1.4235,1.4237,1.4282,1.4278,1.4421,1.4442,1.433,1.4331,1.4332,0,1.3485,1.3538,1.3611,1.365,1.3685,1.3747,1.3789,1.3821,1.3864,1.3933,1.3973,1.4042,1.4099,1.4207,1.4248,1.4312,1.4316,1.4361,1.4325,1.4319,1.4319,1.4316,1.4322,1.4368,1.4369,1.437,1.437,0,1.358,1.3596,1.3657,1.3724,1.3774,1.3829,1.3882,1.3913,1.3954,1.4001,1.4072,1.4116,1.4203,1.4272,1.434,1.4373,1.4379,1.4382,1.4396,1.4391,1.4379,1.4388,1.4254,1.4378,1.4377,1.4377,1.4376,1.4376,1.3643,1.3691,1.375,1.3818,1.3862,1.3912,1.3962,1.3999,1.4059,1.4134,1.4148,1.4224,1.428,1.4373,1.4409,1.4468,1.4458,1.4478,1.4484,1.4489,1.4492,1.4369,1.448,1.448,1.4479,1.4479,1.4479,0,1.3739,1.3779,1.384,1.3916,1.397,1.3972,1.4032,1.4076,1.4143,1.4196,1.4252,1.4335,1.4402,1.4449,1.4517,1.4556,1.456,1.4573,1.4571,1.4579,1.4496,1.4478,1.4568,1.4568,1.4568,1.4568,1.4568,1.4568,1.3795,1.3878,1.3902,1.4006,1.4045,1.412,1.4155,1.4201,1.4244,1.4336,1.4393,1.4424,1.4475,1.4547,1.4609,1.4621,1.4646,1.4659,1.4672,1.4593,1.4584,1.4575,1.4558,1.4664,1.4664,1.475,1.4751,1.4751]}]]